This demonstration page uses our WeatherBlox Daily Observations layout. Learn more.

Left ArrowRight Arrow

39.29038, -76.61219

Hourly Observations for November 16, 2020

Temp ( °F °C ) Dew Point ( °F °C ) Humidity (%) Winds ( mph kmh ) Pressure ( in mb ) Visibility ( mi km ) Precip ( " mm )
12:54 am 00:54 Clear 54 12.2 31 -0.6 42 42 WNW 24 39 29.90 1013 10 16 0.00 0.00
1:54 am 01:54 Clear 53 11.7 28 -2.2 38 38 W 18 30 29.93 1014 10 16 0.00 0.00
2:54 am 02:54 Clear 52 11.1 28 -2.2 40 40 W 20 31 29.93 1014 10 16 0.00 0.00
3:54 am 03:54 Mostly Clear 51 10.6 28 -2.2 41 41 W 15 24 29.96 1015 10 16 0.00 0.00
4:54 am 04:54 Mostly Clear 49 9.4 28 -2.2 44 44 W 7 11 29.98 1015 10 16 0.00 0.00
5:54 am 05:54 Clear 49 9.4 28 -2.2 44 44 W 9 15 29.99 1016 10 16 0.00 0.00
6:54 am 06:54 Mostly Sunny 48 8.9 27 -2.8 44 44 W 12 19 30.01 1016 10 16 0.00 0.00
7:54 am 07:54 Mostly Sunny 50 10 26 -3.3 39 39 W 10 17 30.01 1016 10 16 0.00 0.00
8:54 am 08:54 Sunny 52 11.1 27 -2.8 38 38 W 17 28 30.03 1017 10 16 0.00 0.00
9:54 am 09:54 Sunny 53 11.7 28 -2.2 38 38 W 22 35 30.04 1017 10 16 0.00 0.00
10:54 am 10:54 Sunny 55 12.8 27 -2.8 34 34 W 16 26 30.03 1017 10 16 0.00 0.00
11:54 am 11:54 Sunny 57 13.9 27 -2.8 32 32 W 13 20 30.03 1017 10 16 0.00 0.00
12:54 pm 12:54 Sunny 58 14.4 27 -2.8 31 31 W 13 20 30.01 1016 10 16 0.00 0.00
1:54 pm 13:54 Sunny 60 15.6 23 -5 24 24 W 20 31 30.00 1016 10 16 0.00 0.00
2:54 pm 14:54 Sunny 59 15 20 -6.7 22 22 W 20 31 29.98 1015 10 16 0.00 0.00
3:54 pm 15:54 Sunny 58 14.4 18 -7.8 21 21 W 14 22 29.98 1015 10 16 0.00 0.00
4:54 pm 16:54 Clear 55 12.8 16 -8.9 21 21 W 10 17 30.01 1016 10 16 0.00 0.00
5:54 pm 17:54 Clear 51 10.6 17 -8.3 26 26 W 6 9 30.02 1017 10 16 0.00 0.00
6:54 pm 18:54 Clear 51 10.6 17 -8.3 26 26 WNW 9 15 30.03 1017 10 16 0.00 0.00
7:54 pm 19:54 Clear 51 10.6 17 -8.3 26 26 WNW 8 13 30.05 1018 10 16 0.00 0.00
8:54 pm 20:54 Clear 51 10.6 18 -7.8 27 27 W 8 13 30.04 1017 10 16 0.00 0.00
9:54 pm 21:54 Clear 47 8.3 19 -7.2 33 33 W 9 15 30.05 1018 10 16 0.00 0.00
10:54 pm 22:54 Clear 46 7.8 20 -6.7 35 35 WSW 6 9 30.05 1018 10 16 0.00 0.00
11:54 pm 23:54 Clear 45 7.2 20 -6.7 37 37 W 5 7 30.05 1018 10 16 0.00 0.00

Powered by AerisWeather